Home   Weather   Crofton   Past weeks
Flag for Canada

Past Weather in Crofton, British Columbia, Canada — Yesterday and Last 2 Weeks

Now
73 °F

Broken clouds.


Feels Like: 77 °F
Forecast: 69 / 53 °F
Wind: 7 mph from Southwest

Location: Nanaimo Airport

Current Time: Jul 17, 2019 at 6:18:15 pm

Latest Report: Jul 17, 2019 at 5:00 pm


Visibility: 25 mi

Pressure: 29.78 "Hg

Humidity: 50%

Dew Point: 54 °F

Location of CroftonLocation

Past Weather in Crofton — Graph

°F

Crofton Temperature Yesterday

Maximum temperature yesterday: 75 °F (at 5:00 pm)
Minimum temperature yesterday: 59 °F (at 6:00 am)
Average temperature yesterday: 70 °F

High & Low Weather Summary for the Past Weeks

 TemperatureHumidityPressure
High77 °F (Jul 12, 3:00 pm)100% (Jul 10, 6:00 am)30.13 "Hg (Jul 10, 6:00 am)
Low54 °F (Jul 7, 6:00 am)47% (Jul 12, 3:00 pm)29.75 "Hg (Jul 17, 12:00 pm)
Average66 °F72%30.01 "Hg
* Reported Jul 2 5:00 pm — Jul 17 5:00 pm, Crofton. Weather by CustomWeather, © 2019

Note: Actual official high and low records may vary slightly from our data, if they occured in-between our weather recording intervals... More about our weather records

Advertising

Crofton Weather History for the Previous 24 Hours

Scroll right to see more
 ConditionsComfort  
Time TempWeatherWind HumidityBarometerVisibility
5:00 pm
Wed, Jul 17
73 °FBroken clouds.7 mph50%29.78 "Hg25 mi
4:00 pm73 °FPartly sunny.13 mph47%29.78 "Hg25 mi
3:00 pm73 °FBroken clouds.6 mph50%29.77 "Hg25 mi
2:00 pm73 °FPartly sunny.3 mph53%29.77 "Hg25 mi
1:00 pm72 °FPartly sunny.No wind61%29.76 "Hg25 mi
12:00 pm70 °FPartly sunny.8 mph64%29.75 "Hg15 mi
11:00 am66 °FBroken clouds.9 mph78%29.76 "Hg15 mi
10:00 am63 °FBroken clouds.12 mph83%29.76 "Hg15 mi
9:00 am61 °FLight rain. Cloudy.12 mph88%29.77 "Hg10 mi
8:00 am61 °FLight rain. Mostly cloudy.10 mph88%29.78 "Hg10 mi
7:51 am61 °FLight rain. Mostly cloudy.12 mph83%29.78 "Hg15 mi
7:00 am61 °FMostly cloudy.8 mph88%29.79 "Hg15 mi
6:00 am59 °FMostly cloudy.No wind94%29.80 "Hg15 mi
9:00 pm
Tue, Jul 16
72 °FCloudy.6 mph50%29.90 "Hg25 mi
8:00 pm72 °FMore clouds than sun.8 mph57%29.90 "Hg25 mi
7:00 pm73 °FBroken clouds.9 mph57%29.91 "Hg25 mi
6:00 pm75 °FBroken clouds.7 mph50%29.91 "Hg25 mi
Weather by CustomWeather, © 2019

See weather overview